ECHOSTAR 11

Last updated on Sun Dec 14 2025 00:02:49 GMT+0000 (Coordinated Universal Time)

1 33207U 08035A 25347.21364390 -.00000043 00000+0 00000+0 0 9996 2 33207 0.5245 86.4160 0002722 166.2415 156.4260 1.00272224 49340
UTC large
Height (km)
Speed (km/s)
/
Latitude / Longitude
Inclination (degrees)
Orbital Period (minutes)
Azimuth
Elevation
Range (km)
Doppler Factor

Next 0 passes for location: London (51.5072 / 0.1276)

Sorry there are no passes over London.